Location: Helstorf
(52.5868°N, 9.5862°E)
Time: 19:40:01
(UTC+00:00)

Cosmos 2151 - Pass Details

Date: 15 May 2026
Orbit: 556 x 575 km, 82.5° (Epoch: 7 June)

Event Time Altitude Azimuth Distance (km) Brightness Sun altitude
Rises 20:48:48 0° 344° (NNW) 2,777 7.9 -11.4°
Reaches altitude 10° 20:51:04 10° 338° (NNW) 1,871 6.9 -11.6°
Maximum altitude 20:54:59 43° 266° (W) 794 3.9 -12.0°
Drops below altitude 10° 20:58:50 10° 195° (SSW) 1,846 5.1 -12.3°
Enters shadow 20:59:07 - 194° (SSW) 1,958 5.2 -12.3°
